Bismarck, ND

3:54 AM CDT on May 28, 2017 (GMT -0500)
Bismarck Municipal

Weather History for KBIS - April, 2014

Change the Weather History Date:

Saturday, April 5, 2014

  Actual Average Record
Temperature  
Mean Temperature 40 °F 39 °F  
Max Temperature 54 °F 52 °F 79 °F (1991)
Min Temperature 26 °F 27 °F -1 °F (1996)
Degree Days  
Heating Degree Days 25 26  
Month to date heating degree days 181 134  
Since 1 July heating degree days 8197 7653  
Cooling Degree Days 0 0  
Month to date cooling degree days 0 0  
Year to date cooling degree days 0 0  
Moisture  
Dew Point 28 °F    
Average Humidity 67    
Maximum Humidity 89    
Minimum Humidity 44    
Precipitation  
Precipitation 0.00 in 0.04 in 1.96 in (1997)
Month to date precipitation 0.20 0.18  
Year to date precipitation 1.59 1.99  
Snow  
Snow 0.00 in 0.30 in 15.20 in (1997)
Month to date snowfall 1.9 1.2  
Since 1 July snowfall 38.2 47.8  
Snow Depth T in    
Sea Level Pressure  
Sea Level Pressure 29.88 in    
Wind  
Wind Speed 6 mph (ESE)    
Max Wind Speed 17 mph    
Max Gust Speed 20 mph    
Visibility 10 miles    
Events      
T = Trace of Precipitation, MM = Missing Value Source: NWS Daily Summary

Daily Weather History Graph

Daily Weather History Graph

Search for Another Location

Airport or City:

Trip Planner

Search our weather history database for the weather conditions in past years. The results will help you decide how hot, cold, wet, or windy it might be!

Date:

Astronomy

Apr. 05, 2014 Rise Set
Actual Time 7:14 AM CDT 8:17 PM CDT
Civil Twilight 6:43 AM CDT 8:48 PM CDT
Nautical Twilight 6:06 AM CDT 9:25 PM CDT
Astronomical Twilight 5:27 AM CDT 10:05 PM CDT
Moon 11:10 AM CDT (4/5) 1:42 AM CDT (4/5)
Length of Visible Light 14h 05m
Length of Day
13h 03m
Waxing Crescent, 34% of the Moon is Illuminated
Apr 5
Waxing Crescent
Apr 7
First Quarter
Apr 15
Full
Apr 22
Last Quarter
Apr 29
New

Hourly Weather History & Observations

Time (CDT) Temp. Windchill Dew Point Humidity Pressure Visibility Wind Dir Wind Speed Gust Speed Precip Events Conditions
12:52 AM 30.0 °F 20.5 °F 25.0 °F 82% 29.95 in 10.0 mi SE 11.5 mph - N/A   Clear
1:52 AM 32.0 °F 25.6 °F 25.0 °F 75% 29.93 in 10.0 mi South 6.9 mph - N/A   Clear
2:52 AM 30.9 °F 25.2 °F 24.1 °F 76% 29.91 in 10.0 mi SW 5.8 mph - N/A   Clear
3:52 AM 28.0 °F 21.7 °F 23.0 °F 81% 29.89 in 10.0 mi SSE 5.8 mph - N/A   Clear
4:52 AM 27.0 °F 21.6 °F 21.9 °F 81% 29.87 in 10.0 mi SSE 4.6 mph - N/A   Clear
5:52 AM 28.0 °F 24.2 °F 21.9 °F 78% 29.86 in 10.0 mi ESE 3.5 mph - N/A   Clear
6:52 AM 27.0 °F - 21.9 °F 81% 29.86 in 10.0 mi Calm Calm - N/A   Clear
7:52 AM 27.0 °F - 23.0 °F 85% 29.87 in 10.0 mi Calm Calm - N/A   Clear
8:52 AM 33.1 °F - 27.0 °F 78% 29.88 in 10.0 mi Calm Calm - N/A   Clear
9:52 AM 39.0 °F 36.8 °F 26.1 °F 60% 29.86 in 10.0 mi South 3.5 mph - N/A   Clear
10:52 AM 42.1 °F 37.7 °F 26.1 °F 53% 29.86 in 10.0 mi WSW 6.9 mph - N/A   Clear
11:52 AM 46.0 °F - 28.0 °F 50% 29.85 in 10.0 mi Calm Calm - N/A   Clear
12:52 PM 46.9 °F - 28.9 °F 50% 29.84 in 10.0 mi Variable 3.5 mph - N/A   Clear
1:52 PM 52.0 °F - 30.9 °F 45% 29.83 in 10.0 mi WSW 4.6 mph - N/A   Clear
2:52 PM 52.0 °F - 33.1 °F 49% 29.85 in 10.0 mi NW 12.7 mph - N/A   Clear
3:52 PM 50.0 °F - 32.0 °F 50% 29.86 in 10.0 mi North 12.7 mph - N/A   Partly Cloudy
4:52 PM 52.0 °F - 35.1 °F 53% 29.86 in 10.0 mi NNE 11.5 mph - N/A   Clear
5:52 PM 51.1 °F - 36.0 °F 56% 29.85 in 10.0 mi NE 15.0 mph - N/A   Scattered Clouds
6:52 PM 50.0 °F - 35.1 °F 57% 29.88 in 10.0 mi ENE 11.5 mph - N/A   Clear
7:52 PM 45.0 °F 41.8 °F 33.1 °F 63% 29.90 in 10.0 mi ENE 5.8 mph - N/A   Clear
8:52 PM 39.9 °F 36.7 °F 32.0 °F 73% 29.91 in 10.0 mi East 4.6 mph - N/A   Clear
9:52 PM 34.0 °F 31.0 °F 30.0 °F 85% 29.92 in 10.0 mi East 3.5 mph - N/A   Clear
10:52 PM 34.0 °F 31.0 °F 30.0 °F 85% 29.92 in 10.0 mi East 3.5 mph - N/A   Clear
11:52 PM 32.0 °F 28.7 °F 28.9 °F 88% 29.92 in 10.0 mi NE 3.5 mph - N/A   Scattered Clouds